Location: Donzy-le-Pr�
(47.3659°N, 3.1107°E)
Time: 10:41:03
(UTC+00:00)

NOSS 3-3 (C) - Pass Details

Date: 03 March 2021
Orbit: 813 x 1399 km, 63.4° (Epoch: 15 April)

Event Time Altitude Azimuth Distance (km) Brightness Sun altitude
Rises 20:07:28 0° 319° (NW) 3,916 8.1 -26.1°
Reaches altitude 10° 20:10:02 10° 322° (NW) 3,036 7.3 -26.5°
Maximum altitude 20:17:25 68° 46° (NE) 1,346 4.5 -27.7°
Enters shadow 20:18:50 58° 95° (E) 1,467 4.5 -27.9°
